Left ArrowRight Arrow

40.97296, -117.73568

Hourly Observations for March 13, 2018

Temp ( °F °C ) Dew Point ( °F °C ) Humidity (%) Winds ( mph kmh ) Pressure ( in mb ) Visibility ( mi km ) Precip ( " mm )
12:56 am 00:56 Clear 46 7.8 29 -1.7 51 51 ENE 8 13 29.94 1014 10 16 0.00 0.00
1:56 am 01:56 Clear 44 6.7 29 -1.7 55 55 ENE 12 19 29.93 1014 10 16 0.00 0.00
2:56 am 02:56 Clear 39 3.9 28 -2.2 65 65 E 10 17 29.92 1013 10 16 0.00 0.00
3:56 am 03:56 Clear 44 6.7 29 -1.7 55 55 E 8 13 29.89 1012 10 16 0.00 0.00
4:56 am 04:56 Mostly Cloudy 43 6.1 29 -1.7 58 58 ENE 7 11 29.89 1012 10 16 0.00 0.00
5:56 am 05:56 Clear 44 6.7 29 -1.7 55 55 NE 12 19 29.88 1012 10 16 0.00 0.00
6:56 am 06:56 Mostly Cloudy 44 6.7 29 -1.7 55 55 ENE 9 15 29.89 1012 10 16 0.00 0.00
7:56 am 07:56 Sunny 44 6.7 29 -1.7 55 55 ENE 15 24 29.90 1012 10 16 0.00 0.00
8:56 am 08:56 Mostly Cloudy 48 8.9 31 -0.6 52 52 ENE 13 20 29.90 1012 10 16 0.00 0.00
9:56 am 09:56 Sunny 59 15 33 0.6 38 38 SSE 14 22 29.86 1011 10 16 0.00 0.00
10:56 am 10:56 Sunny 63 17.2 31 -0.6 30 30 SSE 20 31 29.82 1010 10 16 0.00 0.00
11:56 am 11:56 Sunny 65 18.3 32 0 29 29 SSE 21 33 29.79 1009 10 16 0.00 0.00
12:56 pm 12:56 Sunny 67 19.4 32 0 27 27 SSE 18 30 29.76 1008 10 16 0.00 0.00
1:56 pm 13:56 Mostly Sunny 66 18.9 33 0.6 29 29 SE 16 26 29.75 1007 10 16 0.00 0.00
2:56 pm 14:56 Sunny 65 18.3 33 0.6 31 31 S 15 24 29.73 1007 10 16 0.00 0.00
3:56 pm 15:56 Cloudy 64 17.8 34 1.1 33 33 WSW 18 30 29.74 1007 10 16 0.00 0.00
4:04 pm 16:04 Cloudy with Light Rain 54 12 41 5 63 63 SW 37 59 29.71 1006 4 6 0.00 0.00
4:56 pm 16:56 Cloudy 51 10.6 42 5.6 71 71 WSW 14 22 29.78 1008 10 16 0.00 0.03
5:56 pm 17:56 Mostly Cloudy with Light Rain 51 10.6 43 6.1 74 74 NW 6 9 29.75 1008 10 16 0.00 0.03
6:56 pm 18:56 Mostly Clear 49 9.4 44 6.7 83 83 E 7 11 29.71 1006 10 16 0.01 0.25
7:56 pm 19:56 Cloudy 48 8.9 43 6.1 83 83 NE 5 7 29.72 1006 10 16 0.00 0.00
8:56 pm 20:56 Cloudy 49 9.4 42 5.6 77 77 NE 5 7 29.69 1006 10 16 0.00 0.00
9:56 pm 21:56 Mostly Clear 46 7.8 41 5 83 83 W 10 17 29.70 1006 10 16 0.00 0.00
10:56 pm 22:56 Mostly Cloudy 44 6.7 37 2.8 76 76 WSW 8 13 29.70 1006 10 16 0.00 0.00
11:56 pm 23:56 Cloudy 43 6.1 35 1.7 74 74 W 15 24 29.71 1006 10 16 0.00 0.00

Powered by Vaisala Xweather